logo tempoitalia

Diretta Meteo Lampedusa, Italiavenerdì 24 maggio ore 23:50

Mappa
Sereno 21 °C Sereno 24 Ore: T.min 20 T.max 23
Ponente Est Km/h 24 Punto di rugiada: 17 °C Umidità: 77% Visibilità: 10 Km
Il sole sorge alle: 05:57 Il sole tramonta alle: 20:15
24 Maggio 2024 23:50 tempo osservato: Sereno Sereno 21 77 1014 vento: Nord E 24
24 Maggio 2024 23:20 tempo osservato: Sereno Sereno 21 73 1014 vento: Nord E 25.9
24 Maggio 2024 22:50 tempo osservato: Sereno Sereno 21 73 1014 vento: Nord E 25.9
24 Maggio 2024 22:20 tempo osservato: Poco Nuvoloso Poco Nuvoloso 21 73 1014 vento: Nord E 29.6
24 Maggio 2024 21:50 tempo osservato: Sereno Sereno 21 73 1014 vento: Nord E 29.6
24 Maggio 2024 21:20 tempo osservato: Sereno Sereno 21 73 1013 vento: Nord E 33.3
24 Maggio 2024 20:50 tempo osservato: Sereno Sereno 21 73 1013 vento: Nord E 35.2
24 Maggio 2024 20:20 tempo osservato: Sereno Sereno 21 77 1013 vento: Nord E 35.2
24 Maggio 2024 19:50 tempo osservato: Sereno Sereno 21 77 1013 vento: Nord E 35.2
24 Maggio 2024 19:20 tempo osservato: Sereno Sereno 21 77 1013 vento: Nord E 31.5
24 Maggio 2024 18:50 tempo osservato: Sereno Sereno 22 78 1013 vento: Nord E 31.5
24 Maggio 2024 18:20 tempo osservato: Sereno Sereno 22 78 1013 vento: Nord E 29.6
24 Maggio 2024 17:50 tempo osservato: Sereno Sereno 22 83 1014 vento: Nord E 27.8
24 Maggio 2024 17:20 tempo osservato: Sereno Sereno 22 78 1014 vento: Nord E 27.8
24 Maggio 2024 16:50 tempo osservato: Sereno Sereno 22 78 1014 vento: Nord E 25.9
24 Maggio 2024 16:20 tempo osservato: Sereno Sereno 22 78 1014 vento: Nord E/NE 24
24 Maggio 2024 15:50 tempo osservato: Sereno Sereno 22 78 1015 vento: Nord E/NE 25.9
24 Maggio 2024 15:20 tempo osservato: Sereno Sereno 23 73 1015 vento: Nord E 25.9
24 Maggio 2024 14:50 tempo osservato: Sereno Sereno 23 68 1015 vento: Nord E 27.8
24 Maggio 2024 14:20 tempo osservato: Sereno Sereno 23 68 1015 vento: Nord E/NE 25.9
24 Maggio 2024 13:50 tempo osservato: Sereno Sereno 23 73 1016 vento: Nord E/NE 24
24 Maggio 2024 13:20 tempo osservato: Sereno Sereno 23 73 1016 vento: Nord E/NE 24
24 Maggio 2024 12:20 tempo osservato: Sereno Sereno 22 83 1016 vento: Nord E/NE 24
24 Maggio 2024 11:50 tempo osservato: Sereno Sereno 22 83 1016 vento: Nord E 24
24 Maggio 2024 11:20 tempo osservato: Sereno Sereno 22 83 1016 vento: Nord E 24
24 Maggio 2024 10:50 tempo osservato: Sereno Sereno 21 88 1016 vento: Nord E 24
24 Maggio 2024 10:20 tempo osservato: Poco Nuvoloso Poco Nuvoloso 21 88 1016 vento: Nord E/NE 20.3
24 Maggio 2024 09:50 tempo osservato: Poco Nuvoloso Poco Nuvoloso 21 82 1016 vento: Nord E 20.3
24 Maggio 2024 09:20 tempo osservato: Sereno Sereno 22 78 1016 vento: Nord E/NE 22.2
24 Maggio 2024 08:50 tempo osservato: Sereno Sereno 21 82 1016 vento: Nord E/NE 16.7
24 Maggio 2024 08:20 tempo osservato: Poco Nuvoloso Poco Nuvoloso 21 82 1015 vento: Nord E/SE 22.2
24 Maggio 2024 07:50 tempo osservato: Pioggia Pioggia 21 82 1015 vento: Nord E 22.2
24 Maggio 2024 07:20 tempo osservato: Temporale nelle vicinanze Temporale nelle vicinanze 21 82 1015 vento: Nord E 24
24 Maggio 2024 06:50 tempo osservato: Pioggia Pioggia 20 93 1014 vento: Nord E 22.2
24 Maggio 2024 06:20 tempo osservato: Nuvoloso Nuvoloso 20 88 1015 vento: Nord E 16.7
24 Maggio 2024 05:50 tempo osservato: Molto Nuvoloso Molto Nuvoloso 20 88 1015 vento: Nord E 16.7
24 Maggio 2024 05:20 tempo osservato: Poco Nuvoloso Poco Nuvoloso 20 88 1015 vento: Nord E 18.5
24 Maggio 2024 04:50 tempo osservato: Poco Nuvoloso Poco Nuvoloso 20 88 1015 vento: Nord E 18.5
24 Maggio 2024 04:20 tempo osservato: Poco Nuvoloso Poco Nuvoloso 20 88 1015 vento: Nord E 16.7
24 Maggio 2024 03:50 tempo osservato: Sereno Sereno 20 88 1015 vento: Nord E/SE 18.5
24 Maggio 2024 03:20 tempo osservato: Sereno Sereno 20 88 1016 vento: Nord E/SE 18.5
24 Maggio 2024 02:50 tempo osservato: Sereno Sereno 20 88 1016 vento: Nord E/SE 16.7
24 Maggio 2024 02:20 tempo osservato: Sereno Sereno 20 88 1016 vento: Nord E/SE 18.5
24 Maggio 2024 01:50 tempo osservato: Sereno Sereno 21 82 1016 vento: Nord E/SE 22.2
24 Maggio 2024 01:20 tempo osservato: Nuvoloso Nuvoloso 20 88 1016 vento: Nord E 18.5
24 Maggio 2024 00:50 tempo osservato: Molto Nuvoloso Molto Nuvoloso 21 82 1017 vento: Nord E 16.7